CEB374 RPVR-RPLL

Flight info

Callsign CEB374
Flight time 0h 40m
Altitude 26000
Route MINOR3A MINOR B473 LAIYA LAIYA3R
Aircraft A20N/M-SDE2E3FGHIRWXY/LB1

Departure

Time 2026-04-21 14:31
Airport Roxas Airport (RPVR)

Arrival

Time 2026-04-21 15:11
Airport Ninoy Aquino International Airport (RPLL)
Time Latitude Longitude Altitude Speed Heading
2026-04-21 14:16 11.60081 122.74926 23 ft 0 kts 264°
2026-04-21 14:26 11.60085 122.74923 23 ft 1 kts 354°
2026-04-21 14:27 11.60092 122.74950 23 ft 7 kts 103°
2026-04-21 14:27 11.60091 122.75030 23 ft 13 kts 86°
2026-04-21 14:27 11.60025 122.75106 22 ft 17 kts 144°
2026-04-21 14:27 11.59910 122.75188 21 ft 21 kts 146°
2026-04-21 14:28 11.59776 122.75280 21 ft 24 kts 146°
2026-04-21 14:28 11.59630 122.75362 23 ft 22 kts 132°
2026-04-21 14:28 11.59517 122.75465 24 ft 22 kts 140°
2026-04-21 14:28 11.59385 122.75564 24 ft 23 kts 144°
2026-04-21 14:29 11.59246 122.75665 22 ft 25 kts 145°
2026-04-21 14:29 11.59161 122.75742 21 ft 6 kts 132°
2026-04-21 14:29 11.59151 122.75741 21 ft 2 kts 268°
2026-04-21 14:29 11.59164 122.75724 21 ft 0 kts 323°
2026-04-21 14:30 11.59170 122.75719 21 ft 2 kts 323°
2026-04-21 14:30 11.59189 122.75705 21 ft 19 kts 324°
2026-04-21 14:30 11.59579 122.75425 24 ft 114 kts 324°
2026-04-21 14:30 11.60418 122.74810 123 ft 176 kts 330°
2026-04-21 14:31 11.61456 122.74072 874 ft 187 kts 333°
2026-04-21 14:31 11.62491 122.73681 1882 ft 170 kts
2026-04-21 14:31 11.64926 122.73955 3297 ft 194 kts 346°
2026-04-21 14:32 11.65821 122.73474 3706 ft 211 kts 329°
2026-04-21 14:32 11.67498 122.72141 4428 ft 244 kts 324°
2026-04-21 14:32 11.68872 122.71043 5072 ft 262 kts 326°
2026-04-21 14:32 11.70386 122.69891 5738 ft 279 kts 327°
2026-04-21 14:33 11.71975 122.68728 6618 ft 286 kts 327°
2026-04-21 14:33 11.73606 122.67561 7565 ft 290 kts 327°
2026-04-21 14:33 11.74700 122.66789 8162 ft 293 kts 327°
2026-04-21 14:33 11.76946 122.65215 9323 ft 298 kts 327°
2026-04-21 14:34 11.78682 122.64003 10156 ft 303 kts 327°
2026-04-21 14:34 11.80440 122.62780 10805 ft 313 kts 326°
2026-04-21 14:34 11.82295 122.61488 11223 ft 331 kts 326°
2026-04-21 14:34 11.83596 122.60581 11547 ft 340 kts 326°
2026-04-21 14:35 11.86211 122.58762 12497 ft 346 kts 325°
2026-04-21 14:35 11.87548 122.57833 13000 ft 347 kts 324°
2026-04-21 14:35 11.89553 122.56438 13723 ft 350 kts 324°
2026-04-21 14:35 11.92250 122.54558 14609 ft 355 kts 324°
2026-04-21 14:36 11.94293 122.53135 15231 ft 359 kts 324°
2026-04-21 14:36 11.96358 122.51698 15845 ft 363 kts 325°
2026-04-21 14:36 11.97769 122.50715 16253 ft 366 kts 325°
2026-04-21 14:36 12.00566 122.48766 17038 ft 370 kts 325°
2026-04-21 14:37 12.01987 122.47775 17431 ft 372 kts 324°
2026-04-21 14:37 12.04880 122.45760 18208 ft 376 kts 324°
2026-04-21 14:37 12.06320 122.44757 18583 ft 378 kts 324°
2026-04-21 14:37 12.08482 122.43252 19134 ft 381 kts 324°
2026-04-21 14:38 12.10691 122.41712 19684 ft 384 kts 324°
2026-04-21 14:38 12.13679 122.39632 20413 ft 388 kts 324°
2026-04-21 14:38 12.15167 122.38596 20760 ft 391 kts 324°
2026-04-21 14:38 12.18176 122.36497 21455 ft 395 kts 324°
2026-04-21 14:39 12.19671 122.35455 21788 ft 397 kts 324°
2026-04-21 14:39 12.22743 122.33313 22598 ft 398 kts 324°
2026-04-21 14:39 12.25014 122.31728 23320 ft 395 kts 324°
2026-04-21 14:39 12.26533 122.30667 23806 ft 394 kts 323°
2026-04-21 14:40 12.28791 122.29088 24501 ft 392 kts 323°
2026-04-21 14:40 12.31785 122.26994 25279 ft 394 kts 324°
2026-04-21 14:40 12.33313 122.25925 25626 ft 397 kts 323°
2026-04-21 14:40 12.35602 122.24326 25906 ft 399 kts 324°
2026-04-21 14:41 12.37918 122.22710 25928 ft 400 kts 324°
2026-04-21 14:41 12.40225 122.21112 25929 ft 400 kts 324°
2026-04-21 14:41 12.42512 122.19529 25928 ft 400 kts 324°
2026-04-21 14:41 12.44819 122.17931 25926 ft 400 kts 324°
2026-04-21 14:42 12.47129 122.16329 25926 ft 400 kts 324°
2026-04-21 14:42 12.49436 122.14728 25926 ft 400 kts 324°
2026-04-21 14:42 12.51741 122.13129 25925 ft 400 kts 324°
2026-04-21 14:42 12.54069 122.11511 25924 ft 400 kts 324°
2026-04-21 14:43 12.56375 122.09909 25925 ft 400 kts 323°
2026-04-21 14:43 12.58676 122.08309 25926 ft 400 kts 323°
2026-04-21 14:43 12.60976 122.06709 25926 ft 400 kts 323°
2026-04-21 14:43 12.64065 122.04562 25926 ft 400 kts 323°
2026-04-21 14:44 12.65591 122.03500 25928 ft 399 kts 323°
2026-04-21 14:44 12.67880 122.01906 25928 ft 399 kts 324°
2026-04-21 14:44 12.70199 122.00292 25927 ft 399 kts 324°
2026-04-21 14:44 12.72484 121.98701 25928 ft 399 kts 324°
2026-04-21 14:45 12.74774 121.97107 25931 ft 400 kts 323°
2026-04-21 14:45 12.77074 121.95505 25933 ft 400 kts 324°
2026-04-21 14:45 12.79392 121.93890 25932 ft 399 kts 324°
2026-04-21 14:45 12.81682 121.92296 25932 ft 399 kts 323°
2026-04-21 14:46 12.83974 121.90699 25933 ft 399 kts 323°
2026-04-21 14:46 12.86296 121.89080 25934 ft 399 kts 323°
2026-04-21 14:46 12.88585 121.87485 25934 ft 399 kts 323°
2026-04-21 14:46 12.90889 121.85879 25934 ft 399 kts 323°
2026-04-21 14:47 12.93199 121.84267 25933 ft 399 kts 323°
2026-04-21 14:47 12.95490 121.82667 25934 ft 399 kts 323°
2026-04-21 14:47 12.97769 121.81078 25935 ft 399 kts 323°
2026-04-21 14:47 13.00085 121.79460 25939 ft 399 kts 323°
2026-04-21 14:48 13.02366 121.77869 25941 ft 399 kts 323°
2026-04-21 14:48 13.05462 121.75706 25942 ft 399 kts 323°
2026-04-21 14:48 13.06995 121.74635 25943 ft 399 kts 323°
2026-04-21 14:48 13.09311 121.73017 25944 ft 399 kts 323°
2026-04-21 14:49 13.11601 121.71416 25944 ft 399 kts 323°
2026-04-21 14:49 13.13913 121.69801 25942 ft 399 kts 323°
2026-04-21 14:49 13.16242 121.68172 25945 ft 398 kts 323°
2026-04-21 14:49 13.18528 121.66575 25945 ft 398 kts 323°
2026-04-21 14:50 13.20807 121.64981 25944 ft 398 kts 323°
2026-04-21 14:50 13.23132 121.63354 25946 ft 398 kts 323°
2026-04-21 14:50 13.25420 121.61753 25946 ft 398 kts 323°
2026-04-21 14:50 13.28480 121.59609 25946 ft 398 kts 323°
2026-04-21 14:51 13.30003 121.58541 25945 ft 398 kts 323°
2026-04-21 14:51 13.32297 121.56933 25916 ft 399 kts 323°
2026-04-21 14:51 13.34608 121.55315 25666 ft 398 kts 323°
2026-04-21 14:51 13.37643 121.53191 25333 ft 395 kts 323°
2026-04-21 14:52 13.39137 121.52144 25118 ft 392 kts 323°
2026-04-21 14:52 13.41399 121.50558 24316 ft 398 kts 323°
2026-04-21 14:52 13.43725 121.48926 23289 ft 408 kts 323°
2026-04-21 14:52 13.46052 121.47293 22270 ft 405 kts 323°
2026-04-21 14:53 13.48337 121.45691 21931 ft 397 kts 323°
2026-04-21 14:53 13.50622 121.44085 21700 ft 395 kts 323°
2026-04-21 14:53 13.52904 121.42479 21472 ft 393 kts 323°
2026-04-21 14:53 13.55145 121.40906 21243 ft 392 kts 323°
2026-04-21 14:54 13.57402 121.39321 21015 ft 390 kts 324°
2026-04-21 14:54 13.59643 121.37775 20785 ft 390 kts 326°
2026-04-21 14:54 13.61968 121.36311 20555 ft 389 kts 327°
2026-04-21 14:54 13.64303 121.34882 20287 ft 388 kts 327°
2026-04-21 14:55 13.66629 121.33459 19830 ft 385 kts 327°
2026-04-21 14:55 13.68897 121.32066 19377 ft 382 kts 327°
2026-04-21 14:55 13.71936 121.30180 18757 ft 378 kts 327°
2026-04-21 14:55 13.74150 121.28795 18297 ft 375 kts 327°
2026-04-21 14:56 13.75646 121.27852 17988 ft 373 kts 327°
2026-04-21 14:56 13.77843 121.26459 17528 ft 370 kts 327°
2026-04-21 14:56 13.80006 121.25076 17079 ft 368 kts 327°
2026-04-21 14:56 13.82173 121.23681 16630 ft 365 kts 327°
2026-04-21 14:57 13.84322 121.22281 16173 ft 362 kts 327°
2026-04-21 14:57 13.86420 121.20901 15712 ft 359 kts 327°
2026-04-21 14:57 13.88514 121.19511 15243 ft 357 kts 327°
2026-04-21 14:57 13.91289 121.17654 14617 ft 354 kts 327°
2026-04-21 14:58 13.92644 121.16741 14298 ft 353 kts 327°
2026-04-21 14:58 13.94703 121.15348 13808 ft 351 kts 327°
2026-04-21 14:58 13.96727 121.13969 13334 ft 349 kts 327°
2026-04-21 14:58 13.98737 121.12593 12864 ft 347 kts 327°
2026-04-21 14:59 14.00744 121.11213 12403 ft 344 kts 327°
2026-04-21 14:59 14.02747 121.09827 11941 ft 342 kts 327°
2026-04-21 14:59 14.04699 121.08467 11496 ft 339 kts 327°
2026-04-21 14:59 14.06638 121.07107 11044 ft 336 kts 327°
2026-04-21 15:00 14.08570 121.05739 10613 ft 333 kts 327°
2026-04-21 15:00 14.10433 121.04409 10405 ft 322 kts 327°
2026-04-21 15:00 14.12251 121.03099 10215 ft 311 kts 327°
2026-04-21 15:00 14.13991 121.01836 10025 ft 301 kts 327°
2026-04-21 15:01 14.15700 121.00589 9732 ft 296 kts 327°
2026-04-21 15:01 14.17328 120.99284 9338 ft 297 kts 317°
2026-04-21 15:01 14.18635 120.97656 8960 ft 297 kts 309°
2026-04-21 15:01 14.19840 120.95933 8584 ft 296 kts 308°
2026-04-21 15:02 14.21028 120.94199 8199 ft 294 kts 307°
2026-04-21 15:02 14.22193 120.92499 7823 ft 292 kts 307°
2026-04-21 15:02 14.23364 120.90796 7435 ft 291 kts 307°
2026-04-21 15:02 14.24543 120.89092 7060 ft 288 kts 307°
2026-04-21 15:03 14.25708 120.87418 6703 ft 286 kts 307°
2026-04-21 15:03 14.26858 120.85770 6332 ft 284 kts 307°
2026-04-21 15:03 14.28006 120.84127 5947 ft 282 kts 307°
2026-04-21 15:03 14.29157 120.82479 5658 ft 277 kts 307°
2026-04-21 15:04 14.30265 120.80911 5483 ft 267 kts 310°
2026-04-21 15:04 14.31577 120.79613 5307 ft 256 kts 324°
2026-04-21 15:04 14.32985 120.78539 5143 ft 247 kts 327°
2026-04-21 15:04 14.34384 120.77528 4889 ft 244 kts 330°
2026-04-21 15:05 14.35944 120.76920 4532 ft 238 kts 359°
2026-04-21 15:05 14.38757 120.78318 3719 ft 225 kts 62°
2026-04-21 15:05 14.39257 120.79791 3472 ft 210 kts 78°
2026-04-21 15:06 14.39618 120.81210 3224 ft 198 kts 72°
2026-04-21 15:06 14.40125 120.82499 2914 ft 191 kts 65°
2026-04-21 15:06 14.40765 120.83761 2592 ft 206 kts 62°
2026-04-21 15:06 14.41511 120.85115 2521 ft 217 kts 61°
2026-04-21 15:07 14.42238 120.86411 2506 ft 200 kts 61°
2026-04-21 15:07 14.42910 120.87615 2576 ft 187 kts 62°
2026-04-21 15:07 14.43534 120.88738 2493 ft 177 kts 62°
2026-04-21 15:07 14.44135 120.89824 2251 ft 172 kts 62°
2026-04-21 15:08 14.44719 120.90881 2021 ft 166 kts 62°
2026-04-21 15:08 14.45276 120.91887 1826 ft 153 kts 62°
2026-04-21 15:08 14.45778 120.92793 1616 ft 138 kts 62°
2026-04-21 15:08 14.46239 120.93620 1422 ft 129 kts 61°
2026-04-21 15:09 14.46675 120.94403 1265 ft 125 kts 62°
2026-04-21 15:09 14.47110 120.95189 1113 ft 126 kts 62°
2026-04-21 15:09 14.47549 120.95980 965 ft 127 kts 62°
2026-04-21 15:09 14.47989 120.96775 807 ft 128 kts 61°
2026-04-21 15:10 14.48433 120.97575 635 ft 128 kts 62°
2026-04-21 15:10 14.48874 120.98372 473 ft 128 kts 61°
2026-04-21 15:10 14.49333 120.99174 296 ft 130 kts 61°
2026-04-21 15:10 14.49934 121.00253 107 ft 130 kts 63°
2026-04-21 15:11 14.50213 121.00780 82 ft 106 kts 62°
2026-04-21 15:11 14.50452 121.01214 82 ft 54 kts 60°
2026-04-21 15:11 14.50629 121.01531 82 ft 47 kts 58°
2026-04-21 15:11 14.50851 121.01780 82 ft 16 kts 14°
2026-04-21 15:12 14.50896 121.01772 82 ft 0 kts 333°
2026-04-21 15:12 14.50906 121.01766 82 ft 2 kts 324°
2026-04-21 15:12 14.50910 121.01763 82 ft 0 kts 324°
2026-04-21 15:12 14.50915 121.01759 82 ft 0 kts 321°
2026-04-21 15:13 14.50926 121.01749 82 ft 3 kts 319°
2026-04-21 15:13 14.50949 121.01728 82 ft 5 kts 318°
2026-04-21 15:13 14.50981 121.01695 82 ft 8 kts 309°
2026-04-21 15:13 14.51026 121.01648 82 ft 10 kts 316°
2026-04-21 15:14 14.51083 121.01591 82 ft 12 kts 315°
2026-04-21 15:14 14.51148 121.01522 82 ft 14 kts 314°
2026-04-21 15:14 14.51194 121.01472 82 ft 7 kts 314°
2026-04-21 15:14 14.51217 121.01448 82 ft 5 kts 314°
2026-04-21 15:15 14.51249 121.01425 82 ft 6 kts 340°
2026-04-21 15:15 14.51291 121.01438 82 ft 7 kts 48°
2026-04-21 15:15 14.51328 121.01485 82 ft 8 kts 54°
2026-04-21 15:15 14.51370 121.01536 82 ft 10 kts 45°
2026-04-21 15:16 14.51427 121.01586 82 ft 10 kts 18°
2026-04-21 15:16 14.51488 121.01556 82 ft 11 kts 315°
2026-04-21 15:16 14.51532 121.01511 82 ft 11 kts 321°
2026-04-21 15:16 14.51585 121.01539 82 ft 10 kts 47°
2026-04-21 15:17 14.51607 121.01561 82 ft 1 kts 44°
2026-04-21 15:17 14.51614 121.01569 82 ft 0 kts 44°